078  
ASUS45 KTFX 260410  
RWRMT  
MONTANA REGIONAL WEATHER ROUNDUP  
NATIONAL WEATHER SERVICE GREAT FALLS MT  
1000 PM MDT MON MAR 25 2019  
 
NOTE: "FAIR" INDICATES FEW OR NO CLOUDS BELOW 12000 FEET WITH NO  
SIGNIFICANT WEATHER AND/OR S TO VISIBILITY
.  
 
MTZ001>007-043-260500-  
WEST OF THE DIVIDE  
 
CITY SKY/WX TMP DP RH WIND PRES REMARKS
 
KALISPELL FAIR 36 27 69 CALM 29.96F  
MISSOULA FAIR 44 26 49 S9 29.98S  
BUTTE FAIR 41 23 48 S6 30.09S  
MULLAN PASS FAIR 38 20 48 VRB5 29.96S  
ANACONDA N/A 39 25 56 SE6 30.06S  
DEER LODGE N/A 39 28 65 S12 30.06S WCI 32  

 
 
MTZ008-052>055-260500-  
SOUTHWEST MONTANA  
 
CITY SKY/WX TMP DP RH WIND PRES REMARKS
 
BOZEMAN FAIR 36 29 75 SE5 30.11S  
DILLON FAIR 36 27 69 SW10 30.10R WCI 28  
ENNIS CLOUDY 37 27 65 S13G18 30.18S WCI 29  
W YELLOWSTONE FAIR 27 23 86 CALM 30.20S  

 
 
MTZ009-010-012-014-046-048-049-054-260500-  
EAST SLOPES AND CENTRAL MONTANA  
 
CITY SKY/WX TMP DP RH WIND PRES REMARKS
 
CUT BANK FAIR 43 35 73 S3 29.96S  
GREAT FALLS FAIR 44 30 57 S15 30.00S  
MALMSTROM AFB MOCLDY 41 30 66 SW12 30.01  
HELENA FAIR 40 32 73 W3 30.05R  
AUGUSTA FAIR 38 30 75 SE8 30.00R WCI 32  
BOWMANS CRNR FAIR 38 29 70 S13 29.99 WCI 31  
FAIRFIELD FAIR 42 30 62 S9 29.99S  
POWER FAIR 39 30 70 S14 29.98 WCI 31  
RAYNESFORD MOCLDY 45 26 47 S12 30.02  
ULM FAIR 41 30 64 S17 30.00F  

 
 
MTZ011-013-016-021-045-047-050-051-260500-  
NORTH CENTRAL MONTANA  
 
CITY SKY/WX TMP DP RH WIND PRES REMARKS
 
HAVRE FAIR 37 36 96 E7 30.00F WCI 32  
LEWISTOWN FAIR 41 29 62 SW12 30.05S  
N BAR RANCH FAIR 37 27 65 N6 30.08S  
CHINOOK N/A 39 39 100 E8 30.02F  
DENTON FAIR 35 32 90 W5 30.00  
GEYSER FAIR 38 30 71 SW8 30.03S  
GRASS RANGE FAIR 38 34 83 CALM 30.02  
JUDITH GAP FAIR 38 27 64 S9 30.07S WCI 32  
ROY FAIR 41 38 91 S8 30.02  
STANFORD FAIR 41 24 51 CALM 30.04  
WINIFRED FAIR 41 30 65 S7 30.02F  

 
 
MTZ017>020-022>027-061-062-260500-  
NORTHEAST MONTANA  
 
CITY SKY/WX TMP DP RH WIND PRES REMARKS
 
GLASGOW FAIR 35 31 85 E13 30.08F FOG WCI 26  
GLENDIVE CLOUDY 42 37 82 S7 30.17R  
JORDAN N/A 39 35 86 SE10 30.08F  
MALTA CLEAR 37 37 100 NE8 30.05R WCI 31  
SIDNEY CLOUDY 41 36 82 S10 30.16S  
WOLF POINT FAIR 34 31 88 CALM 30.14R  
POPLAR N/A 37 34 87 S3 30.16R  
SCOBEY N/A 33 26 76 SE3 30.08  

 
 
MTZ028>42-056>058-260500-  
SOUTHCENTRAL AND SOUTHEAST MONTANA  
 
CITY SKY/WX TMP DP RH WIND PRES REMARKS
 
BAKER CLOUDY 36 36 100 S8 30.18S WCI 30  
BILLINGS FAIR 48 36 63 S3 30.09S  
LIVINGSTON FAIR 45 25 45 SW16G24 30.10R  
MILES CITY FAIR 38 36 92 SE10 30.13S WCI 31  
BIG TIMBER CLEAR 43 25 49 W12 30.10S  
EKALAKA N/A N/A N/A N/A MISG 30.12F  
FORSYTH N/A 39 37 93 E6 30.12S  
HARLOWTON FAIR 39 29 67 W12 30.08S WCI 32  

 
 
REGIONAL REPORTS...DAKOTAS  
 
CITY SKY/WX TMP DP RH WIND PRES REMARKS
 
WILLISTON CLOUDY 40 33 76 S10 30.15F  
MINOT CLOUDY 34 27 75 SE6 30.24F WCI 29  
DICKINSON CLOUDY 33 32 96 S13 30.18F FOG WCI 24  
BEACH CLOUDY 36 36 100 S12 30.18S WCI 27  
CROSBY MOCLDY 34 34 100 S13G18 30.16S WCI 25  
TIOGA MOCLDY 32 32 100 SE12 30.18F WCI 23  
WATFORD CITY CLOUDY 39 37 93 SE9 30.17F  
BISMARCK CLOUDY 33 28 81 SE5 30.31S  
GRAND FORKS FAIR 21 17 84 S6 30.37S WCI 13  
FARGO FAIR 22 20 92 CALM 30.38S  
RAPID CITY FOG 34 33 96 SE8 30.25S VSB 1/4 WCI 27  

 
 
REGIONAL REPORTS...WYOMING/IDAHO/WASHINGTON  
 
CITY SKY/WX TMP DP RH WIND PRES REMARKS
 
GILLETTE FAIR 37 35 92 S7 30.17S WCI 32  
SHERIDAN FAIR 36 32 85 CALM 30.12S  
BUFFALO WY FAIR 42 34 73 S5 30.15S  
CODY FAIR 45 23 42 S14 30.14S  
YELLOWSTONE LA N/A 23 20 88 CALM 30.24S  
IDAHO FALLS FAIR 35 28 75 NW3 30.19S  
SALMON FAIR 43 31 62 VRB3 30.09R  
BOISE FAIR 55 29 36 E16 29.97S  
SPOKANE CLOUDY 50 29 44 SE6 29.89S  

 
 
REGIONAL REPORTS...ALBERTA  
 
CITY SKY/WX TMP DP RH WIND PRES REMARKS
 
CALGARY FOG 36 34 93 N5 29.89S VSB 1/4  
EDMONTON CLOUDY 34 32 93 S2 29.92F  
FORT MCMURRAY PTCLDY 34 30 86 SW8 29.89S WCI 27  
HIGH LEVEL MOCLDY 41 28 60 N7 29.84F  
LETHBRIDGE MOCLDY 41 28 60 S10 29.92S  
LLOYDMINSTER CLOUDY 34 30 86 S5 29.94F  
MEDICINE HAT CLEAR 43 37 81 S15G21 29.93S  
ONEFOUR N/A 36 34 93 E12 N/A WCI 27  
PEACE RIVER PTCLDY 37 32 81 CALM 29.86F  
PINCHER CREEK PTCLDY 37 27 65 W8 29.93S WCI 31  
RAYMOND N/A 45 27 49 W6 N/A  

 
 
REGIONAL REPORTS...SASKATCHEWAN  
 
CITY SKY/WX TMP DP RH WIND PRES REMARKS
 
CORONACH N/A 34 32 93 SE6 N/A WCI 29  
ESTEVAN CLOUDY 34 30 86 SE9 30.16F WCI 26  
PRINCE ALBERT MOCLDY 27 23 86 E3 30.06F  
REGINA CLOUDY 36 32 87 S10 30.10F WCI 28  
ROCKGLEN N/A 34 34 100 S18 N/A WCI 23  
SASKATOON CLOUDY 36 32 87 S9 30.05F WCI 29  
SWIFT CURRENT PTCLDY 34 32 93 S15G21 29.98F WCI 24  

 
 
 
CLICK HERE TO GO TO PREVIOUS BULLETINS.

The Nexlab MT Page Main Text Page